This demonstration page uses our WeatherBlox Daily Observations layout. Learn more.

Hourly Observations for August 25, 2017

Temp ( °F °C ) Dew Point ( °F °C ) Humidity (%) Winds ( mph kmh ) Pressure ( in mb ) Visibility ( mi km ) Precip ( " mm )
12:15 am 00:15 Clear 68 20.2 55 12.5 61 61 SSE 10 17 29.88 1012 10 16.09344 0 0
12:35 am 00:35 Clear 68 20 55 12.6 63 63 SSE 8 13 29.88 1012 10 16.09344 0 0
12:55 am 00:55 Clear 68 20.1 55 12.6 62 62 SSE 9 15 29.88 1012 10 16.09344 0 0
1:15 am 01:15 Clear 69 20.3 55 12.7 62 62 S 10 17 29.88 1012 10 16.09344 0 0
1:35 am 01:35 Clear 68 20.1 55 13 64 64 S 9 15 29.88 1012 10 16.09344 0 0
1:55 am 01:55 Clear 68 20 56 13.2 65 65 S 8 13 29.88 1012 10 16.09344 0 0
2:15 am 02:15 Clear 67 19.6 56 13.5 68 68 S 8 13 29.88 1012 10 16.09344 0 0
2:35 am 02:35 Clear 68 19.8 56 13.6 68 68 S 9 15 29.88 1012 10 16.09344 0 0
2:55 am 02:55 Clear 67 19.7 57 13.8 69 69 SSE 8 13 29.91 1013 10 16.09344 0 0
3:15 am 03:15 Clear 67 19.3 57 14.1 72 72 S 8 13 29.94 1014 10 16.09344 0 0
3:35 am 03:35 Mostly Cloudy 67 19.3 58 14.3 73 73 SSE 8 13 29.94 1014 10 16.09344 0 0
3:55 am 03:55 Partly Cloudy 65 18.5 58 14.3 77 77 SSE 9 15 29.94 1014 10 16.09344 0 0
4:15 am 04:15 Clear 65 18.2 57 14 77 77 SSE 9 15 29.91 1013 10 16.09344 0 0
4:35 am 04:35 Clear 65 18.1 57 13.7 76 76 SSE 8 13 29.91 1013 10 16.09344 0 0
4:55 am 04:55 Clear 64 17.5 57 13.8 79 79 SSE 6 9 29.91 1013 10 16.09344 0 0
5:15 am 05:15 Clear 63 17.3 57 14 81 81 S 9 15 29.91 1013 10 16.09344 0 0
5:35 am 05:35 Clear 63 17.1 57 14.1 83 83 S 12 19 29.91 1013 10 16.09344 0 0
5:55 am 05:55 Clear 63 17.3 58 14.2 82 82 S 9 15 29.91 1013 10 16.09344 0 0
6:15 am 06:15 Clear 64 17.5 58 14.5 83 83 S 8 13 29.91 1013 10 16.09344 0 0
6:35 am 06:35 Clear 64 17.7 58 14.7 83 83 S 10 17 29.91 1013 10 16.09344 0 0
6:55 am 06:55 Clear 64 17.6 59 15 85 85 S 10 17 29.91 1013 10 16.09344 0 0
7:15 am 07:15 Sunny 63 17.4 59 15 86 86 SSE 7 11 29.91 1013 10 16.09344 0 0
7:35 am 07:35 Sunny 63 17.2 59 15.2 88 88 SSE 6 9 29.94 1014 10 16.09344 0 0
7:55 am 07:55 Sunny 64 17.5 60 15.5 88 88 S 9 15 29.94 1014 10 16.09344 0 0
8:15 am 08:15 Sunny 64 18 60 15.7 87 87 S 8 13 29.94 1014 10 16.09344 0 0
8:35 am 08:35 Sunny 65 18.1 61 16 88 88 S 7 11 29.94 1014 10 16.09344 0 0
8:55 am 08:55 Sunny 66 18.8 62 16.4 86 86 S 8 13 29.94 1014 10 16.09344 0 0
9:15 am 09:15 Sunny 68 20.1 62 16.5 80 80 S 9 15 29.91 1013 10 16.09344 0 0
9:35 am 09:35 Sunny 69 20.7 62 16.9 79 79 S 10 17 29.94 1014 10 16.09344 0 0
9:55 am 09:55 Sunny 71 21.9 63 17.2 75 75 S 12 19 29.94 1014 10 16.09344 0 0
10:15 am 10:15 Sunny 73 22.8 63 17.1 70 70 S 13 20 29.94 1014 10 16.09344 0 0
10:35 am 10:35 Sunny 73 23 63 17.3 70 70 S 14 22 29.94 1014 10 16.09344 0 0
10:55 am 10:55 Sunny 73 22.7 63 17.3 72 72 S 13 20 29.94 1014 10 16.09344 0 0
11:15 am 11:15 Sunny 74 23.4 64 17.6 70 70 S 17 28 29.91 1013 10 16.09344 0 0
11:35 am 11:35 Sunny 74 23.4 64 17.8 71 71 S 13 20 29.91 1013 10 16.09344 0 0
11:55 am 11:55 Sunny 75 23.8 64 18 70 70 S 9 15 29.91 1013 10 16.09344 0 0
12:15 pm 12:15 Sunny 77 25 65 18.2 66 66 S 14 22 29.91 1013 10 16.09344 0 0
12:35 pm 12:35 Sunny 79 25.9 64 18 62 62 S 13 20 29.91 1013 10 16.09344 0 0
12:55 pm 12:55 Sunny 80 26.6 65 18.1 60 60 S 14 22 29.91 1013 10 16.09344 0 0
1:15 pm 13:15 Sunny 80 26.6 65 18.2 60 60 S 12 19 29.91 1013 10 16.09344 0 0
1:35 pm 13:35 Partly Cloudy 82 27.7 64 17.9 55 55 S 16 26 29.88 1012 10 16.09344 0 0
1:55 pm 13:55 Sunny 82 27.7 64 17.9 55 55 S 15 24 29.88 1012 10 16.09344 0 0
2:15 pm 14:15 Partly Cloudy 84 28.7 62 16.7 48 48 S 16 26 29.85 1011 10 16.09344 0 0
2:35 pm 14:35 Partly Cloudy 84 28.7 62 16.8 49 49 S 16 26 29.85 1011 10 16.09344 0 0
2:55 pm 14:55 Partly Cloudy 84 28.7 61 16.2 47 47 S 20 31 29.85 1011 10 16.09344 0 0
3:15 pm 15:15 Partly Cloudy 85 29.2 61 16.3 46 46 S 14 22 29.85 1011 10 16.09344 0 0
3:35 pm 15:35 Partly Cloudy 85 29.5 61 15.9 44 44 SSE 16 26 29.85 1011 10 16.09344 0 0
3:55 pm 15:55 Sunny 85 29.6 59 14.9 41 41 S 15 24 29.85 1011 10 16.09344 0 0
4:15 pm 16:15 Sunny 85 29.5 60 15.3 42 42 S 15 24 29.85 1011 10 16.09344 0 0
4:35 pm 16:35 Sunny 85 29.3 59 15.1 42 42 S 13 20 29.85 1011 10 16.09344 0 0
4:55 pm 16:55 Sunny 85 29.2 58 14.4 40 40 SSE 16 26 29.85 1011 10 16.09344 0 0
5:15 pm 17:15 Sunny 84 29 60 15.3 43 43 S 14 22 29.85 1011 10 16.09344 0 0
5:35 pm 17:35 Sunny 84 28.9 60 15.4 44 44 S 14 22 29.85 1011 10 16.09344 0 0
5:55 pm 17:55 Sunny 83 28.6 59 15.1 44 44 SSE 18 30 29.85 1011 10 16.09344 0 0
6:15 pm 18:15 Sunny 83 28.3 59 15.1 45 45 SSE 16 26 29.85 1011 10 16.09344 0 0
6:35 pm 18:35 Sunny 82 28 59 15.1 45 45 S 14 22 29.85 1011 10 16.09344 0 0
6:55 pm 18:55 Sunny 81 27.4 59 15.1 47 47 SSE 15 24 29.83 1010 10 16.09344 0 0
7:15 pm 19:15 Sunny 80 26.9 60 15.4 49 49 SSE 13 20 29.83 1010 10 16.09344 0 0
7:35 pm 19:35 Sunny 79 26 60 15.5 52 52 SSE 12 19 29.85 1011 10 16.09344 0 0
7:55 pm 19:55 Sunny 77 24.9 60 15.6 56 56 SSE 12 19 29.85 1011 10 16.09344 0 0
8:15 pm 20:15 Sunny 76 24.3 60 15.5 58 58 SSE 10 17 29.85 1011 10 16.09344 0 0
8:35 pm 20:35 Clear 74 23.6 60 15.5 61 61 SSE 10 17 29.88 1012 10 16.09344 0 0
8:55 pm 20:55 Clear 73 22.8 60 15.5 64 64 SSE 8 13 29.91 1013 10 16.09344 0 0
9:15 pm 21:15 Clear 73 22.5 60 15.5 65 65 SSE 9 15 29.91 1013 10 16.09344 0 0
9:35 pm 21:35 Clear 71 21.7 60 15.7 69 69 SSE 9 15 29.91 1013 10 16.09344 0 0
9:55 pm 21:55 Clear 71 21.8 60 15.7 68 68 SSE 9 15 29.91 1013 10 16.09344 0 0
10:15 pm 22:15 Clear 72 22 60 15.7 68 68 S 12 19 29.94 1014 10 16.09344 0 0
10:35 pm 22:35 Clear 72 22.1 60 15.7 67 67 SSE 12 19 29.94 1014 10 16.09344 0 0
10:55 pm 22:55 Clear 72 22.2 60 15.8 67 67 S 12 19 29.94 1014 10 16.09344 0 0
11:15 pm 23:15 Clear 72 22.2 61 16 68 68 S 13 20 29.94 1014 10 16.09344 0 0
11:35 pm 23:35 Clear 72 22 61 16.3 70 70 S 10 17 29.97 1015 10 16.09344 0 0
11:55 pm 23:55 Clear 71 21.8 62 16.5 72 72 S 13 20 29.94 1014 10 16.09344 0 0

Powered by AerisWeather